OE7AOT-2 Weather Reports


time (UTC)temp
C
wind
direction
speed
KPH
gust
KPH
rain 1hr
cm
rain 24hr
cm
rain mn
cm
humidity
%
barometer
mb
20260502181921 15 45 25.7 0.0 0.00 0.00 0.00 71 927.6
20260502181813 15 0 40.2 0.0 0.00 0.00 0.00 71 927.7
20260502181704 15 0 40.2 0.0 0.00 0.00 0.00 71 927.6
20260502181556 16 0 8.0 0.0 0.00 0.00 0.00 71 927.6
20260502181447 16 0 37.0 0.0 0.00 0.00 0.00 71 927.6
20260502181339 16 0 54.7 0.0 0.00 0.00 0.00 71 927.6
20260502181230 16 0 3.2 0.0 0.00 0.00 0.00 71 927.5
20260502181122 16 45 37.0 0.0 0.00 0.00 0.00 71 927.6
20260502181013 16 0 54.7 0.0 0.00 0.00 0.00 71 927.6
20260502180905 16 45 57.9 0.0 0.00 0.00 0.00 71 927.6
20260502180757 16 0 37.0 0.0 0.00 0.00 0.00 70 927.6
20260502180648 16 0 11.3 0.0 0.00 0.00 0.00 70 927.6
20260502180540 16 270 46.7 0.0 0.00 0.00 0.00 70 927.6
20260502180431 16 315 29.0 0.0 0.00 0.00 0.00 70 927.5
20260502180323 16 0 57.9 0.0 0.00 0.00 0.00 70 927.5
20260502180214 16 45 41.8 0.0 0.00 0.00 0.00 70 927.5
20260502180106 16 315 8.0 0.0 0.00 0.00 0.00 70 927.6
20260502170512 20 0 22.5 0.0 0.00 0.00 0.00 66 927.4
20260502170404 20 45 22.5 0.0 0.00 0.00 0.00 66 927.4
20260502170256 20 270 30.6 0.0 0.00 0.00 0.00 65 927.4
20260502170147 21 45 8.0 0.0 0.00 0.00 0.00 65 927.4
20260502164332 29 45 24.1 0.0 0.00 0.00 0.00 55 927.0
20260502164224 30 315 32.2 0.0 0.00 0.00 0.00 54 927.1
20260502164115 31 90 46.7 0.0 0.00 0.00 0.00 52 927.0
20260502164007 33 270 20.9 0.0 0.00 0.00 0.00 51 927.0
20260502163858 34 90 33.8 0.0 0.00 0.00 0.00 49 927.0
20260502163750 36 315 82.1 0.0 0.00 0.00 0.00 48 927.0
20260502163642 37 0 27.4 0.0 0.00 0.00 0.00 47 926.9
20260502163533 38 45 51.5 0.0 0.00 0.00 0.00 46 926.9
20260502163424 38 45 27.4 0.0 0.00 0.00 0.00 46 926.9
20260502163316 39 315 69.2 0.0 0.00 0.00 0.00 45 927.0
20260502163208 40 90 67.6 0.0 0.00 0.00 0.00 44 927.0
20260502163059 40 0 67.6 0.0 0.00 0.00 0.00 44 927.0
20260502162951 40 0 45.1 0.0 0.00 0.00 0.00 44 926.9
20260502162842 40 0 86.9 0.0 0.00 0.00 0.00 44 927.0
20260502162734 39 0 51.5 0.0 0.00 0.00 0.00 44 927.0
20260502162625 39 315 57.9 0.0 0.00 0.00 0.00 45 927.0
20260502162517 38 45 38.6 0.0 0.00 0.00 0.00 45 927.0
20260502162408 38 315 41.8 0.0 0.00 0.00 0.00 45 927.0
20260502162300 38 45 48.3 0.0 0.00 0.00 0.00 45 927.0
20260502162152 38 45 22.5 0.0 0.00 0.00 0.00 45 927.0
20260502162043 38 45 83.7 0.0 0.00 0.00 0.00 45 927.1
20260502161936 39 0 56.3 0.0 0.00 0.00 0.00 45 927.0
20260502161826 39 45 22.5 0.0 0.00 0.00 0.00 45 927.0
20260502161718 40 45 22.5 0.0 0.00 0.00 0.00 45 927.1
20260502161609 40 0 46.7 0.0 0.00 0.00 0.00 44 927.1
20260502161501 40 45 3.2 0.0 0.00 0.00 0.00 44 927.1
20260502161353 40 315 77.2 0.0 0.00 0.00 0.00 43 927.1
20260502161244 41 0 95.0 0.0 0.00 0.00 0.00 43 927.0
20260502161136 41 45 61.2 0.0 0.00 0.00 0.00 43 927.0
20260502161027 41 0 35.4 0.0 0.00 0.00 0.00 43 927.1
20260502160919 41 315 75.6 0.0 0.00 0.00 0.00 43 927.1
20260502160810 41 315 114.3 0.0 0.00 0.00 0.00 42 927.1
20260502160702 41 45 59.5 0.0 0.00 0.00 0.00 42 927.0
20260502160553 42 45 99.8 0.0 0.00 0.00 0.00 42 927.0
20260502160445 42 45 72.4 0.0 0.00 0.00 0.00 41 927.0
20260502160337 42 45 41.8 0.0 0.00 0.00 0.00 41 926.9
20260502160228 43 315 43.5 0.0 0.00 0.00 0.00 41 927.0
20260502160120 43 45 48.3 0.0 0.00 0.00 0.00 41 927.0
20260502152341 48 0 83.7 0.0 0.00 0.00 0.00 36 927.2
20260502152233 48 45 86.9 0.0 0.00 0.00 0.00 36 927.2
20260502152124 49 315 64.4 0.0 0.00 0.00 0.00 36 927.2
20260502152016 49 0 56.3 0.0 0.00 0.00 0.00 36 927.3
20260502151907 49 0 67.6 0.0 0.00 0.00 0.00 36 927.3
20260502151759 50 0 125.5 0.0 0.00 0.00 0.00 36 927.3
20260502151542 50 0 104.6 0.0 0.00 0.00 0.00 35 927.4
20260502151434 50 315 107.8 0.0 0.00 0.00 0.00 35 927.4
20260502151325 50 45 104.6 0.0 0.00 0.00 0.00 35 927.3
20260502151217 51 315 75.6 0.0 0.00 0.00 0.00 35 927.3
20260502151108 51 0 117.5 0.0 0.00 0.00 0.00 35 927.3
20260502151000 51 0 75.6 0.0 0.00 0.00 0.00 36 927.3
20260502150851 51 45 19.3 0.0 0.00 0.00 0.00 36 927.4
20260502150743 51 270 46.7 0.0 0.00 0.00 0.00 36 927.4
20260502150635 51 0 66.0 0.0 0.00 0.00 0.00 36 927.3
20260502150418 51 0 91.7 0.0 0.00 0.00 0.00 36 927.3
20260502150309 51 0 38.6 0.0 0.00 0.00 0.00 36 927.4
20260502150201 51 45 49.9 0.0 0.00 0.00 0.00 36 927.4
20260502130648 58 225 70.8 0.0 0.00 0.00 0.00 33 929.1
20260502130540 58 135 11.3 0.0 0.00 0.00 0.00 34 929.2
20260502130431 58 90 56.3 0.0 0.00 0.00 0.00 34 929.1
20260502130323 58 225 12.9 0.0 0.00 0.00 0.00 35 929.1
20260502130214 58 90 37.0 0.0 0.00 0.00 0.00 34 929.1
20260502130106 58 135 12.9 0.0 0.00 0.00 0.00 34 929.1
20260502123709 55 135 41.8 0.0 0.00 0.00 0.00 35 929.4
20260502123601 55 180 48.3 0.0 0.00 0.00 0.00 35 929.4
20260502123452 55 45 25.7 0.0 0.00 0.00 0.00 35 929.4
20260502123343 54 45 32.2 0.0 0.00 0.00 0.00 36 929.5
20260502123235 54 90 14.5 0.0 0.00 0.00 0.00 36 929.4
20260502123127 53 135 56.3 0.0 0.00 0.00 0.00 35 929.5
20260502123018 53 225 61.2 0.0 0.00 0.00 0.00 35 929.5
20260502122910 53 180 66.0 0.0 0.00 0.00 0.00 35 929.5
20260502122801 53 225 45.1 0.0 0.00 0.00 0.00 36 929.5
20260502122653 53 135 64.4 0.0 0.00 0.00 0.00 36 929.6
20260502122544 53 315 14.5 0.0 0.00 0.00 0.00 36 929.5
20260502122436 53 270 53.1 0.0 0.00 0.00 0.00 36 929.5
20260502122327 53 225 75.6 0.0 0.00 0.00 0.00 36 929.6
20260502122219 53 180 78.9 0.0 0.00 0.00 0.00 36 929.6
20260502122111 53 90 14.5 0.0 0.00 0.00 0.00 37 929.5
20260502122002 53 270 30.6 0.0 0.00 0.00 0.00 36 929.6
20260502121854 53 180 41.8 0.0 0.00 0.00 0.00 36 929.6
20260502121745 53 135 85.3 0.0 0.00 0.00 0.00 36 929.6
20260502121637 52 90 27.4 0.0 0.00 0.00 0.00 37 929.7
20260502121528 52 180 8.0 0.0 0.00 0.00 0.00 37 929.6
20260502121420 52 225 38.6 0.0 0.00 0.00 0.00 37 929.6
20260502121311 52 90 37.0 0.0 0.00 0.00 0.00 37 929.7
20260502121203 52 225 48.3 0.0 0.00 0.00 0.00 36 929.7
20260502121055 52 135 46.7 0.0 0.00 0.00 0.00 36 929.7
20260502120946 52 90 24.1 0.0 0.00 0.00 0.00 36 929.7
20260502120838 52 180 86.9 0.0 0.00 0.00 0.00 36 929.7
20260502120729 52 225 11.3 0.0 0.00 0.00 0.00 37 929.7
20260502120621 52 315 8.0 0.0 0.00 0.00 0.00 37 929.7
20260502120512 52 180 85.3 0.0 0.00 0.00 0.00 37 929.8
20260502120404 52 225 106.2 0.0 0.00 0.00 0.00 37 929.8
20260502120256 52 180 83.7 0.0 0.00 0.00 0.00 37 929.8
20260502120147 52 180 46.7 0.0 0.00 0.00 0.00 38 929.8
20260502115930 52 135 46.7 0.0 0.00 0.00 0.00 38 929.8
20260502115822 52 90 11.3 0.0 0.00 0.00 0.00 38 929.8
20260502115713 52 45 59.5 0.0 0.00 0.00 0.00 38 929.9
20260502115605 52 90 43.5 0.0 0.00 0.00 0.00 39 929.9
20260502115456 51 90 27.4 0.0 0.00 0.00 0.00 39 929.9
20260502115348 51 45 45.1 0.0 0.00 0.00 0.00 39 929.9
20260502115240 51 135 22.5 0.0 0.00 0.00 0.00 40 930.0
20260502115131 51 45 17.7 0.0 0.00 0.00 0.00 40 929.9
20260502115023 50 225 16.1 0.0 0.00 0.00 0.00 40 930.0
20260502114914 50 0 75.6 0.0 0.00 0.00 0.00 39 930.0
20260502114806 50 135 104.6 0.0 0.00 0.00 0.00 40 930.0
20260502114657 50 180 38.6 0.0 0.00 0.00 0.00 40 930.0
20260502114549 50 225 17.7 0.0 0.00 0.00 0.00 40 930.0
20260502114440 50 315 59.5 0.0 0.00 0.00 0.00 40 930.0
20260502114224 50 180 20.9 0.0 0.00 0.00 0.00 40 930.0
20260502114115 50 225 51.5 0.0 0.00 0.00 0.00 40 930.1
20260502114007 50 225 48.3 0.0 0.00 0.00 0.00 41 930.1
20260502113858 49 180 29.0 0.0 0.00 0.00 0.00 42 930.1
20260502113750 49 135 32.2 0.0 0.00 0.00 0.00 42 930.1
20260502113641 48 90 51.5 0.0 0.00 0.00 0.00 43 930.1
20260502113533 48 180 11.3 0.0 0.00 0.00 0.00 42 930.1
20260502113424 48 135 11.3 0.0 0.00 0.00 0.00 42 930.1
20260502113316 48 135 56.3 0.0 0.00 0.00 0.00 43 930.2
20260502113208 47 180 41.8 0.0 0.00 0.00 0.00 43 930.2
20260502113059 47 0 40.2 0.0 0.00 0.00 0.00 43 930.2
20260502112951 47 45 16.1 0.0 0.00 0.00 0.00 42 930.2
20260502112842 47 90 35.4 0.0 0.00 0.00 0.00 42 930.2
20260502112734 47 135 49.9 0.0 0.00 0.00 0.00 43 930.2
20260502112625 47 180 25.7 0.0 0.00 0.00 0.00 43 930.3
20260502112517 46 180 41.8 0.0 0.00 0.00 0.00 43 930.3
20260502112408 46 45 41.8 0.0 0.00 0.00 0.00 43 930.2
20260502112300 46 135 106.2 0.0 0.00 0.00 0.00 43 930.3
20260502112152 46 180 56.3 0.0 0.00 0.00 0.00 44 930.3
20260502112043 46 180 45.1 0.0 0.00 0.00 0.00 44 930.3
20260502111936 46 90 30.6 0.0 0.00 0.00 0.00 44 930.3
20260502111826 46 180 59.5 0.0 0.00 0.00 0.00 44 930.3
20260502111718 46 180 33.8 0.0 0.00 0.00 0.00 45 930.3
20260502111609 46 180 66.0 0.0 0.00 0.00 0.00 45 930.4
20260502111501 46 180 25.7 0.0 0.00 0.00 0.00 46 930.4
20260502111353 46 45 37.0 0.0 0.00 0.00 0.00 46 930.3
20260502111244 46 135 57.9 0.0 0.00 0.00 0.00 46 930.4
20260502111136 46 90 27.4 0.0 0.00 0.00 0.00 47 930.3
20260502111027 45 135 11.3 0.0 0.00 0.00 0.00 47 930.3
20260502110919 45 0 49.9 0.0 0.00 0.00 0.00 47 930.3
20260502110810 45 135 57.9 0.0 0.00 0.00 0.00 47 930.4
20260502110702 45 135 83.7 0.0 0.00 0.00 0.00 47 930.4
20260502110553 45 180 33.8 0.0 0.00 0.00 0.00 47 930.3
20260502110445 45 135 56.3 0.0 0.00 0.00 0.00 47 930.4
20260502110337 46 180 43.5 0.0 0.00 0.00 0.00 48 930.4
20260502110228 46 135 41.8 0.0 0.00 0.00 0.00 48 930.4
20260502110120 46 180 72.4 0.0 0.00 0.00 0.00 49 930.3
20260502110011 46 135 49.9 0.0 0.00 0.00 0.00 50 930.4
20260502105903 46 135 20.9 0.0 0.00 0.00 0.00 51 930.4
20260502105754 46 135 69.2 0.0 0.00 0.00 0.00 52 930.5
20260502105646 46 135 14.5 0.0 0.00 0.00 0.00 53 930.5
20260502105537 46 315 61.2 0.0 0.00 0.00 0.00 53 930.5
20260502105429 45 0 16.1 0.0 0.00 0.00 0.00 53 930.4
20260502105321 45 0 19.3 0.0 0.00 0.00 0.00 53 930.4
20260502105212 45 315 32.2 0.0 0.00 0.00 0.00 53 930.4
20260502105104 45 45 19.3 0.0 0.00 0.00 0.00 55 930.5
20260502104955 44 45 12.9 0.0 0.00 0.00 0.00 55 930.5
20260502104847 43 0 9.7 0.0 0.00 0.00 0.00 56 930.5
20260502104738 43 135 16.1 0.0 0.00 0.00 0.00 56 930.6
20260502104630 42 225 14.5 0.0 0.00 0.00 0.00 56 930.6
20260502104522 42 180 29.0 0.0 0.00 0.00 0.00 55 930.6
20260502104413 41 225 70.8 0.0 0.00 0.00 0.00 56 930.7
20260502104305 41 135 20.9 0.0 0.00 0.00 0.00 56 930.7
20260502104156 41 90 43.5 0.0 0.00 0.00 0.00 57 930.7
20260502104048 41 90 17.7 0.0 0.00 0.00 0.00 59 930.7
20260502103939 40 0 11.3 0.0 0.00 0.00 0.00 59 930.7
20260502103831 40 0 57.9 0.0 0.00 0.00 0.00 58 930.7
20260502103722 39 225 40.2 0.0 0.00 0.00 0.00 57 930.8
20260502103614 39 180 66.0 0.0 0.00 0.00 0.00 57 930.8
20260502103506 38 180 3.2 0.0 0.00 0.00 0.00 58 930.8
20260502103357 38 135 61.2 0.0 0.00 0.00 0.00 57 930.8
20260502103249 38 225 40.2 0.0 0.00 0.00 0.00 57 930.8
20260502103140 38 180 72.4 0.0 0.00 0.00 0.00 57 930.8
20260502103032 38 225 93.3 0.0 0.00 0.00 0.00 59 930.8
20260502102923 38 135 1.6 0.0 0.00 0.00 0.00 60 930.9
20260502102815 38 45 30.6 0.0 0.00 0.00 0.00 59 930.8
20260502102706 38 180 49.9 0.0 0.00 0.00 0.00 59 930.8
20260502102558 38 135 75.6 0.0 0.00 0.00 0.00 59 930.9
20260502102450 38 180 56.3 0.0 0.00 0.00 0.00 59 930.8
20260502102341 38 180 101.4 0.0 0.00 0.00 0.00 59 930.9
20260502102233 38 180 101.4 0.0 0.00 0.00 0.00 59 930.8
20260502102124 38 225 75.6 0.0 0.00 0.00 0.00 60 930.9
20260502102016 38 135 43.5 0.0 0.00 0.00 0.00 61 930.9
20260502101907 38 90 22.5 0.0 0.00 0.00 0.00 61 930.9
20260502101759 37 135 57.9 0.0 0.00 0.00 0.00 60 930.9
20260502101650 37 135 25.7 0.0 0.00 0.00 0.00 60 930.9
20260502101542 38 225 29.0 0.0 0.00 0.00 0.00 60 930.9
20260502101434 37 135 40.2 0.0 0.00 0.00 0.00 61 931.0
20260502101325 37 180 35.4 0.0 0.00 0.00 0.00 61 931.0
20260502101217 -12 90 25.7 0.0 0.00 0.00 0.00 61 930.9
20260502101000 37 180 45.1 0.0 0.00 0.00 0.00 61 931.0
20260502100851 37 135 74.0 0.0 0.00 0.00 0.00 61 930.9
20260502100743 37 180 56.3 0.0 0.00 0.00 0.00 61 931.0
20260502100634 37 180 53.1 0.0 0.00 0.00 0.00 61 931.0
20260502100526 37 180 24.1 0.0 0.00 0.00 0.00 61 931.0
20260502100418 36 135 62.8 0.0 0.00 0.00 0.00 62 931.0
20260502100310 36 180 16.1 0.0 0.00 0.00 0.00 63 931.0
20260502100201 36 180 4.8 0.0 0.00 0.00 0.00 63 931.1
20260502091515 32 135 11.3 0.0 0.00 0.00 0.00 63 931.5
20260502091406 32 90 37.0 0.0 0.00 0.00 0.00 63 931.5
20260502091258 32 135 57.9 0.0 0.00 0.00 0.00 63 931.6
20260502091149 32 225 43.5 0.0 0.00 0.00 0.00 63 931.6
20260502091041 32 180 53.1 0.0 0.00 0.00 0.00 63 931.5
20260502090932 32 135 30.6 0.0 0.00 0.00 0.00 63 931.6
20260502090824 32 45 9.7 0.0 0.00 0.00 0.00 63 931.6
20260502090716 32 180 37.0 0.0 0.00 0.00 0.00 63 931.5
20260502090607 32 135 6.4 0.0 0.00 0.00 0.00 63 931.6
20260502090459 32 135 4.8 0.0 0.00 0.00 0.00 63 931.6
20260502090350 32 180 35.4 0.0 0.00 0.00 0.00 63 931.6
20260502090242 33 180 19.3 0.0 0.00 0.00 0.00 63 931.6
20260502090133 33 45 40.2 0.0 0.00 0.00 0.00 63 931.6
20260502080106 25 315 40.2 0.0 0.00 0.00 0.00 63 931.9
20260502071528 21 0 66.0 0.0 0.00 0.00 0.00 66 932.3
20260502071420 20 0 49.9 0.0 0.00 0.00 0.00 66 932.3
20260502071311 20 0 38.6 0.0 0.00 0.00 0.00 66 932.4
20260502071203 20 0 53.1 0.0 0.00 0.00 0.00 66 932.4
20260502071055 20 45 64.4 0.0 0.00 0.00 0.00 66 932.4
20260502070946 20 0 45.1 0.0 0.00 0.00 0.00 66 932.4
20260502070838 20 0 45.1 0.0 0.00 0.00 0.00 66 932.4
20260502070729 20 0 74.0 0.0 0.00 0.00 0.00 66 932.4
20260502070621 20 0 22.5 0.0 0.00 0.00 0.00 66 932.4
20260502070512 20 0 85.3 0.0 0.00 0.00 0.00 66 932.5
20260502070404 20 45 51.5 0.0 0.00 0.00 0.00 66 932.4
20260502070255 19 0 111.0 0.0 0.00 0.00 0.00 66 932.4
20260502070147 19 315 70.8 0.0 0.00 0.00 0.00 66 932.4
20260502070039 19 0 35.4 0.0 0.00 0.00 0.00 66 932.5
20260502065930 19 45 37.0 0.0 0.00 0.00 0.00 66 932.4
20260502065822 19 0 75.6 0.0 0.00 0.00 0.00 67 932.4
20260502065713 19 0 57.9 0.0 0.00 0.00 0.00 67 932.4
20260502065605 18 0 54.7 0.0 0.00 0.00 0.00 67 932.4
20260502065456 18 0 78.9 0.0 0.00 0.00 0.00 67 932.4
20260502065348 18 0 61.2 0.0 0.00 0.00 0.00 67 932.5
20260502065240 18 0 95.0 0.0 0.00 0.00 0.00 67 932.4
20260502065131 18 0 93.3 0.0 0.00 0.00 0.00 67 932.4
20260502065023 18 315 59.5 0.0 0.00 0.00 0.00 67 932.4
20260502064914 18 0 111.0 0.0 0.00 0.00 0.00 67 932.5
20260502064806 17 0 41.8 0.0 0.00 0.00 0.00 67 932.4
20260502064657 17 0 93.3 0.0 0.00 0.00 0.00 67 932.5
20260502064549 17 315 37.0 0.0 0.00 0.00 0.00 67 932.5
20260502064440 17 315 83.7 0.0 0.00 0.00 0.00 67 932.5
20260502064332 17 0 40.2 0.0 0.00 0.00 0.00 67 932.4
20260502064224 17 0 64.4 0.0 0.00 0.00 0.00 67 932.5
20260502064115 17 315 25.7 0.0 0.00 0.00 0.00 67 932.4
20260502064007 16 0 69.2 0.0 0.00 0.00 0.00 67 932.5
20260502063858 16 0 69.2 0.0 0.00 0.00 0.00 67 932.5
20260502063750 16 0 69.2 0.0 0.00 0.00 0.00 67 932.5
20260502063641 16 0 74.0 0.0 0.00 0.00 0.00 67 932.6
20260502063533 16 45 67.6 0.0 0.00 0.00 0.00 67 932.5
20260502063424 16 45 106.2 0.0 0.00 0.00 0.00 67 932.6
20260502063316 16 0 49.9 0.0 0.00 0.00 0.00 68 932.5
20260502063208 16 315 85.3 0.0 0.00 0.00 0.00 68 932.6
20260502063059 15 0 93.3 0.0 0.00 0.00 0.00 68 932.6
20260502062951 15 0 62.8 0.0 0.00 0.00 0.00 68 932.5
20260502062842 15 0 49.9 0.0 0.00 0.00 0.00 68 932.6
20260502062734 15 315 70.8 0.0 0.00 0.00 0.00 68 932.6
20260502062625 15 315 53.1 0.0 0.00 0.00 0.00 68 932.5
20260502062517 15 0 62.8 0.0 0.00 0.00 0.00 68 932.6
20260502062408 15 0 80.5 0.0 0.00 0.00 0.00 68 932.6
20260502062300 15 0 85.3 0.0 0.00 0.00 0.00 68 932.5
20260502062152 15 0 54.7 0.0 0.00 0.00 0.00 68 932.5
20260502062043 14 315 78.9 0.0 0.00 0.00 0.00 68 932.5
20260502061935 14 0 66.0 0.0 0.00 0.00 0.00 68 932.5
20260502061826 14 0 98.2 0.0 0.00 0.00 0.00 68 932.6
20260502061718 14 0 80.5 0.0 0.00 0.00 0.00 68 932.5
20260502061609 14 0 49.9 0.0 0.00 0.00 0.00 69 932.5
20260502061501 14 0 74.0 0.0 0.00 0.00 0.00 69 932.6
20260502061353 13 0 123.9 0.0 0.00 0.00 0.00 69 932.6
20260502061244 13 0 88.5 0.0 0.00 0.00 0.00 70 932.5
20260502061136 13 45 70.8 0.0 0.00 0.00 0.00 70 932.6
20260502061027 13 0 40.2 0.0 0.00 0.00 0.00 71 932.6
20260502060919 12 0 27.4 0.0 0.00 0.00 0.00 71 932.6
20260502060810 12 45 54.7 0.0 0.00 0.00 0.00 71 932.6
20260502060702 12 0 51.5 0.0 0.00 0.00 0.00 71 932.5
20260502060553 12 0 57.9 0.0 0.00 0.00 0.00 72 932.6
20260502060445 11 0 66.0 0.0 0.00 0.00 0.00 72 932.6
20260502060337 11 0 91.7 0.0 0.00 0.00 0.00 72 932.6
20260502060228 10 0 82.1 0.0 0.00 0.00 0.00 73 932.6
20260502060120 10 0 91.7 0.0 0.00 0.00 0.00 73 932.7
20260502060011 10 0 56.3 0.0 0.00 0.00 0.00 74 932.6
20260502055903 8 0 74.0 0.0 0.00 0.00 0.00 74 932.6
20260502055754 8 315 62.8 0.0 0.00 0.00 0.00 74 932.7
20260502055538 7 0 54.7 0.0 0.00 0.00 0.00 73 932.8
20260502055429 6 0 45.1 0.0 0.00 0.00 0.00 72 932.8
20260502055321 6 0 62.8 0.0 0.00 0.00 0.00 71 932.8
20260502055212 5 0 49.9 0.0 0.00 0.00 0.00 71 932.7
20260502055104 5 0 22.5 0.0 0.00 0.00 0.00 70 932.7
20260502054955 5 315 11.3 0.0 0.00 0.00 0.00 70 932.7
20260502054847 5 0 16.1 0.0 0.00 0.00 0.00 70 932.7
20260502054630 5 315 4.8 0.0 0.00 0.00 0.00 70 932.7
20260502054522 5 315 22.5 0.0 0.00 0.00 0.00 70 932.8
20260502054413 5 0 14.5 0.0 0.00 0.00 0.00 70 932.8
20260502054156 5 315 33.8 0.0 0.00 0.00 0.00 70 932.8
20260502054048 5 0 0.0 0.0 0.00 0.00 0.00 70 932.8
20260502053939 5 315 0.0 0.0 0.00 0.00 0.00 70 932.9
20260502053831 5 315 1.6 0.0 0.00 0.00 0.00 70 932.9
20260502053614 5 0 0.0 0.0 0.00 0.00 0.00 70 932.8
20260502053506 5 315 0.0 0.0 0.00 0.00 0.00 70 932.9
20260502053357 5 315 0.0 0.0 0.00 0.00 0.00 70 932.9
20260502053249 5 315 1.6 0.0 0.00 0.00 0.00 70 932.8
20260502053140 5 315 11.3 0.0 0.00 0.00 0.00 70 932.8
20260502053032 5 270 0.0 0.0 0.00 0.00 0.00 70 932.9
20260502052923 5 270 0.0 0.0 0.00 0.00 0.00 70 932.9
20260502052815 5 315 0.0 0.0 0.00 0.00 0.00 70 932.8
20260502052706 5 315 0.0 0.0 0.00 0.00 0.00 70 932.9
20260502052558 5 315 0.0 0.0 0.00 0.00 0.00 70 932.9
20260502052450 5 315 0.0 0.0 0.00 0.00 0.00 70 932.9
20260502052341 5 315 1.6 0.0 0.00 0.00 0.00 70 932.9
20260502052233 5 315 0.0 0.0 0.00 0.00 0.00 70 932.9
20260502052124 5 315 0.0 0.0 0.00 0.00 0.00 70 932.9
20260502052016 5 315 0.0 0.0 0.00 0.00 0.00 70 932.9
20260502051907 5 270 0.0 0.0 0.00 0.00 0.00 70 932.9
20260502051759 5 270 0.0 0.0 0.00 0.00 0.00 70 932.9
20260502051651 5 0 11.3 0.0 0.00 0.00 0.00 70 932.9
20260502051542 5 315 0.0 0.0 0.00 0.00 0.00 70 932.8
20260502051434 5 315 0.0 0.0 0.00 0.00 0.00 70 932.9
20260502051325 5 315 11.3 0.0 0.00 0.00 0.00 70 932.9
20260502051217 5 270 0.0 0.0 0.00 0.00 0.00 70 932.9
20260502051108 5 315 0.0 0.0 0.00 0.00 0.00 70 932.8
20260502050851 5 315 0.0 0.0 0.00 0.00 0.00 70 932.9
20260502050743 5 315 29.0 0.0 0.00 0.00 0.00 70 932.9
20260502050635 5 0 35.4 0.0 0.00 0.00 0.00 70 932.8
20260502050526 5 0 6.4 0.0 0.00 0.00 0.00 70 932.8
20260502050418 5 0 20.9 0.0 0.00 0.00 0.00 70 932.9
20260502050309 5 0 12.9 0.0 0.00 0.00 0.00 70 932.8
20260502050053 5 0 12.9 0.0 0.00 0.00 0.00 71 932.8
20260502045944 5 0 11.3 0.0 0.00 0.00 0.00 71 932.8
20260502045836 5 315 11.3 0.0 0.00 0.00 0.00 71 932.8
20260502045727 5 270 11.3 0.0 0.00 0.00 0.00 71 932.9
20260502045619 5 315 1.6 0.0 0.00 0.00 0.00 71 932.8
20260502045402 5 315 14.5 0.0 0.00 0.00 0.00 71 932.8
20260502045253 5 315 0.0 0.0 0.00 0.00 0.00 71 932.8
20260502045145 5 0 0.0 0.0 0.00 0.00 0.00 71 932.8
20260502045036 5 0 0.0 0.0 0.00 0.00 0.00 71 932.8
20260502044928 5 0 9.7 0.0 0.00 0.00 0.00 71 932.8
20260502044820 5 270 11.3 0.0 0.00 0.00 0.00 71 932.7
20260502044711 5 270 11.3 0.0 0.00 0.00 0.00 70 932.7
20260502044603 5 270 0.0 0.0 0.00 0.00 0.00 70 932.7
20260502044454 5 315 0.0 0.0 0.00 0.00 0.00 70 932.7
20260502044346 5 315 3.2 0.0 0.00 0.00 0.00 70 932.7
20260502044237 5 270 0.0 0.0 0.00 0.00 0.00 70 932.7
20260502044129 5 315 0.0 0.0 0.00 0.00 0.00 70 932.7
20260502044021 5 270 0.0 0.0 0.00 0.00 0.00 70 932.7
20260502043912 5 315 0.0 0.0 0.00 0.00 0.00 70 932.7
20260502043804 5 315 0.0 0.0 0.00 0.00 0.00 70 932.7
20260502043547 5 315 0.0 0.0 0.00 0.00 0.00 70 932.7
20260502043438 5 45 0.0 0.0 0.00 0.00 0.00 70 932.7
20260502043330 5 270 0.0 0.0 0.00 0.00 0.00 70 932.7
20260502043221 5 135 0.0 0.0 0.00 0.00 0.00 70 932.7
20260502043113 5 135 0.0 0.0 0.00 0.00 0.00 70 932.7
20260502043005 5 135 0.0 0.0 0.00 0.00 0.00 70 932.7
20260502042856 5 315 0.0 0.0 0.00 0.00 0.00 70 932.7
20260502042748 5 315 0.0 0.0 0.00 0.00 0.00 70 932.7
20260502042639 5 315 0.0 0.0 0.00 0.00 0.00 70 932.7
20260502042531 5 315 0.0 0.0 0.00 0.00 0.00 70 932.7
20260502042422 5 315 0.0 0.0 0.00 0.00 0.00 70 932.7
20260502042205 5 315 0.0 0.0 0.00 0.00 0.00 70 932.7
20260502042057 5 315 0.0 0.0 0.00 0.00 0.00 70 932.7
20260502041949 5 270 0.0 0.0 0.00 0.00 0.00 70 932.7
20260502041840 5 270 0.0 0.0 0.00 0.00 0.00 70 932.7
20260502041732 5 0 0.0 0.0 0.00 0.00 0.00 70 932.7
20260502041623 5 0 0.0 0.0 0.00 0.00 0.00 70 932.7
20260502041406 5 315 11.3 0.0 0.00 0.00 0.00 70 932.7
20260502041258 5 315 14.5 0.0 0.00 0.00 0.00 70 932.7
20260502041149 5 225 0.0 0.0 0.00 0.00 0.00 70 932.7
20260502041041 5 270 0.0 0.0 0.00 0.00 0.00 70 932.7
20260502040933 5 315 1.6 0.0 0.00 0.00 0.00 70 932.6
20260502040824 5 315 24.1 0.0 0.00 0.00 0.00 70 932.7
20260502040716 5 315 24.1 0.0 0.00 0.00 0.00 70 932.7
20260502040607 5 0 14.5 0.0 0.00 0.00 0.00 70 932.6
20260502040459 5 0 3.2 0.0 0.00 0.00 0.00 71 932.6
20260502040350 5 315 40.2 0.0 0.00 0.00 0.00 71 932.7
20260502040242 5 315 22.5 0.0 0.00 0.00 0.00 71 932.6
20260502040134 5 315 40.2 0.0 0.00 0.00 0.00 71 932.6
20260502040025 5 0 17.7 0.0 0.00 0.00 0.00 71 932.6
20260502035917 5 270 45.1 0.0 0.00 0.00 0.00 71 932.6
20260502035808 5 0 24.1 0.0 0.00 0.00 0.00 71 932.7
20260502035700 5 315 29.0 0.0 0.00 0.00 0.00 71 932.7
20260502035551 5 315 17.7 0.0 0.00 0.00 0.00 71 932.6
20260502035443 5 315 0.0 0.0 0.00 0.00 0.00 71 932.6
20260502035334 5 0 0.0 0.0 0.00 0.00 0.00 71 932.6
20260502035226 5 315 12.9 0.0 0.00 0.00 0.00 71 932.6
20260502035118 5 0 37.0 0.0 0.00 0.00 0.00 71 932.6
20260502035009 5 0 33.8 0.0 0.00 0.00 0.00 71 932.6
20260502034901 5 0 30.6 0.0 0.00 0.00 0.00 71 932.7
20260502034752 5 0 14.5 0.0 0.00 0.00 0.00 70 932.6
20260502034644 5 315 38.6 0.0 0.00 0.00 0.00 70 932.6
20260502034536 5 0 20.9 0.0 0.00 0.00 0.00 70 932.6
20260502034427 5 315 11.3 0.0 0.00 0.00 0.00 70 932.6
20260502034319 5 315 1.6 0.0 0.00 0.00 0.00 70 932.6
20260502034211 5 315 0.0 0.0 0.00 0.00 0.00 71 932.6
20260502034103 5 315 0.0 0.0 0.00 0.00 0.00 71 932.6
20260502033954 5 315 0.0 0.0 0.00 0.00 0.00 71 932.6
20260502033846 5 315 0.0 0.0 0.00 0.00 0.00 71 932.6
20260502033738 5 315 0.0 0.0 0.00 0.00 0.00 71 932.6
20260502033630 5 315 1.6 0.0 0.00 0.00 0.00 71 932.7
20260502033521 5 0 35.4 0.0 0.00 0.00 0.00 71 932.6
20260502033413 5 315 32.2 0.0 0.00 0.00 0.00 71 932.7
20260502033305 5 315 19.3 0.0 0.00 0.00 0.00 71 932.6
20260502033156 5 315 17.7 0.0 0.00 0.00 0.00 71 932.6
20260502033048 5 315 6.4 0.0 0.00 0.00 0.00 71 932.6
20260502032940 5 315 9.7 0.0 0.00 0.00 0.00 71 932.6
20260502032832 5 315 16.1 0.0 0.00 0.00 0.00 71 932.6
20260502032723 5 315 3.2 0.0 0.00 0.00 0.00 71 932.6
20260502032615 5 315 14.5 0.0 0.00 0.00 0.00 71 932.6
20260502032507 5 315 3.2 0.0 0.00 0.00 0.00 71 932.6
20260502032358 5 315 24.1 0.0 0.00 0.00 0.00 71 932.7
20260502032250 5 315 14.5 0.0 0.00 0.00 0.00 71 932.6
20260502032142 5 315 19.3 0.0 0.00 0.00 0.00 71 932.6
20260502032034 5 315 37.0 0.0 0.00 0.00 0.00 71 932.6
20260502031925 5 315 9.7 0.0 0.00 0.00 0.00 71 932.7
20260502031817 5 0 19.3 0.0 0.00 0.00 0.00 71 932.7
20260502031709 5 315 14.5 0.0 0.00 0.00 0.00 71 932.6
20260502031601 5 315 6.4 0.0 0.00 0.00 0.00 71 932.6
20260502031452 5 315 16.1 0.0 0.00 0.00 0.00 71 932.7
20260502031344 4 315 14.5 0.0 0.00 0.00 0.00 71 932.7
20260502031236 5 315 14.5 0.0 0.00 0.00 0.00 70 932.7
20260502031127 5 315 6.4 0.0 0.00 0.00 0.00 70 932.7
20260502031019 5 315 20.9 0.0 0.00 0.00 0.00 71 932.7
20260502030911 5 315 25.7 0.0 0.00 0.00 0.00 71 932.7
20260502030803 5 315 6.4 0.0 0.00 0.00 0.00 71 932.7
20260502030654 5 315 4.8 0.0 0.00 0.00 0.00 71 932.7
20260502030546 5 315 3.2 0.0 0.00 0.00 0.00 71 932.7
20260502030438 5 315 11.3 0.0 0.00 0.00 0.00 71 932.7
20260502030329 5 315 16.1 0.0 0.00 0.00 0.00 70 932.7
20260502030221 5 315 1.6 0.0 0.00 0.00 0.00 70 932.8
20260502030113 5 315 0.0 0.0 0.00 0.00 0.00 70 932.8
20260502025856 5 315 3.2 0.0 0.00 0.00 0.00 70 932.8
20260502025748 5 315 12.9 0.0 0.00 0.00 0.00 70 932.8
20260502025640 5 315 1.6 0.0 0.00 0.00 0.00 70 932.8
20260502025423 5 315 3.2 0.0 0.00 0.00 0.00 70 932.8
20260502025315 5 315 12.9 0.0 0.00 0.00 0.00 70 932.9
20260502025207 5 315 0.0 0.0 0.00 0.00 0.00 70 932.9
20260502025058 5 315 0.0 0.0 0.00 0.00 0.00 70 932.9
20260502024950 5 315 0.0 0.0 0.00 0.00 0.00 70 932.9
20260502024734 5 0 0.0 0.0 0.00 0.00 0.00 70 932.9
20260502024517 5 315 3.2 0.0 0.00 0.00 0.00 71 932.8
20260502024409 5 315 25.7 0.0 0.00 0.00 0.00 71 932.8
20260502024300 5 315 25.7 0.0 0.00 0.00 0.00 71 932.8
20260502024152 5 315 19.3 0.0 0.00 0.00 0.00 71 932.8
20260502024044 5 315 14.5 0.0 0.00 0.00 0.00 71 932.8
20260502023936 5 315 3.2 0.0 0.00 0.00 0.00 71 932.8
20260502023827 5 315 27.4 0.0 0.00 0.00 0.00 71 932.8
20260502023719 5 315 25.7 0.0 0.00 0.00 0.00 70 932.8
20260502023611 5 315 30.6 0.0 0.00 0.00 0.00 70 932.8
20260502023503 5 0 27.4 0.0 0.00 0.00 0.00 70 932.8
20260502023354 5 315 12.9 0.0 0.00 0.00 0.00 70 932.9
20260502023246 5 315 8.0 0.0 0.00 0.00 0.00 70 932.9
20260502023138 5 315 1.6 0.0 0.00 0.00 0.00 70 933.0
20260502023029 5 315 6.4 0.0 0.00 0.00 0.00 70 932.9
20260502022813 5 270 0.0 0.0 0.00 0.00 0.00 70 933.0
20260502022705 5 315 0.0 0.0 0.00 0.00 0.00 70 932.9
20260502022556 5 315 0.0 0.0 0.00 0.00 0.00 70 932.9
20260502022448 5 315 11.3 0.0 0.00 0.00 0.00 70 932.9
20260502022340 5 315 1.6 0.0 0.00 0.00 0.00 70 932.9
20260502022232 5 315 6.4 0.0 0.00 0.00 0.00 70 932.9
20260502022123 5 315 12.9 0.0 0.00 0.00 0.00 70 932.9
20260502022015 5 315 19.3 0.0 0.00 0.00 0.00 70 932.9
20260502021907 5 315 3.2 0.0 0.00 0.00 0.00 70 932.9
20260502021758 5 315 16.1 0.0 0.00 0.00 0.00 70 932.9
20260502021650 5 315 8.0 0.0 0.00 0.00 0.00 70 932.9
20260502021542 5 315 12.9 0.0 0.00 0.00 0.00 70 932.9
20260502021434 5 315 22.5 0.0 0.00 0.00 0.00 70 932.9
20260502021325 5 0 3.2 0.0 0.00 0.00 0.00 70 932.9
20260502021217 5 270 19.3 0.0 0.00 0.00 0.00 70 932.9
20260502021109 5 315 20.9 0.0 0.00 0.00 0.00 70 932.9
20260502021001 5 315 17.7 0.0 0.00 0.00 0.00 70 932.9
20260502020852 5 315 3.2 0.0 0.00 0.00 0.00 70 932.9
20260502020744 5 315 3.2 0.0 0.00 0.00 0.00 70 932.9
20260502020636 5 315 3.2 0.0 0.00 0.00 0.00 70 932.9
20260502020527 5 315 12.9 0.0 0.00 0.00 0.00 70 932.9
20260502020419 5 315 0.0 0.0 0.00 0.00 0.00 70 933.0
20260502020311 5 315 0.0 0.0 0.00 0.00 0.00 70 933.0
20260502020203 5 315 11.3 0.0 0.00 0.00 0.00 70 932.9
20260502020054 5 315 14.5 0.0 0.00 0.00 0.00 70 933.0
20260502015946 5 315 17.7 0.0 0.00 0.00 0.00 70 932.9
20260502015838 5 315 4.8 0.0 0.00 0.00 0.00 70 933.0
20260502015729 5 315 16.1 0.0 0.00 0.00 0.00 70 933.0
20260502015621 5 315 27.4 0.0 0.00 0.00 0.00 70 933.0
20260502015513 5 0 12.9 0.0 0.00 0.00 0.00 70 933.0
20260502015405 5 315 14.5 0.0 0.00 0.00 0.00 70 933.0
20260502015256 5 315 12.9 0.0 0.00 0.00 0.00 70 933.0
20260502015148 6 0 35.4 0.0 0.00 0.00 0.00 70 932.9
20260502015040 6 315 3.2 0.0 0.00 0.00 0.00 70 932.9
20260502014932 6 315 20.9 0.0 0.00 0.00 0.00 71 933.0
20260502014823 6 315 3.2 0.0 0.00 0.00 0.00 71 933.0
20260502014715 6 315 33.8 0.0 0.00 0.00 0.00 71 933.0
20260502014607 6 315 1.6 0.0 0.00 0.00 0.00 71 933.0
20260502014458 6 315 6.4 0.0 0.00 0.00 0.00 71 933.0
20260502014350 6 315 14.5 0.0 0.00 0.00 0.00 71 933.0
20260502014242 6 0 33.8 0.0 0.00 0.00 0.00 71 933.0
20260502014134 6 0 29.0 0.0 0.00 0.00 0.00 71 933.0
20260502014025 6 0 8.0 0.0 0.00 0.00 0.00 71 933.0
20260502013917 6 315 8.0 0.0 0.00 0.00 0.00 71 933.0
20260502013809 6 315 38.6 0.0 0.00 0.00 0.00 71 932.9
20260502013700 6 315 24.1 0.0 0.00 0.00 0.00 71 933.0
20260502013552 6 0 0.0 0.0 0.00 0.00 0.00 71 933.0
20260502013444 6 315 11.3 0.0 0.00 0.00 0.00 71 933.0
20260502013336 6 315 9.7 0.0 0.00 0.00 0.00 71 933.0
20260502013227 6 0 24.1 0.0 0.00 0.00 0.00 71 933.0
20260502013119 6 0 16.1 0.0 0.00 0.00 0.00 71 932.9
20260502013011 6 315 45.1 0.0 0.00 0.00 0.00 71 933.0
20260502012902 6 315 4.8 0.0 0.00 0.00 0.00 71 933.0
20260502012754 6 315 17.7 0.0 0.00 0.00 0.00 71 933.0
20260502012646 6 315 6.4 0.0 0.00 0.00 0.00 71 933.0
20260502012538 6 315 20.9 0.0 0.00 0.00 0.00 71 933.0
20260502012429 6 0 1.6 0.0 0.00 0.00 0.00 71 933.0
20260502012321 6 315 4.8 0.0 0.00 0.00 0.00 71 933.0
20260502012213 5 0 11.3 0.0 0.00 0.00 0.00 71 933.0
20260502012105 5 315 17.7 0.0 0.00 0.00 0.00 71 933.0
20260502011956 5 315 9.7 0.0 0.00 0.00 0.00 71 933.1
20260502011848 5 0 27.4 0.0 0.00 0.00 0.00 71 933.1
20260502011740 5 315 4.8 0.0 0.00 0.00 0.00 71 933.0
20260502011632 5 315 20.9 0.0 0.00 0.00 0.00 71 933.0
20260502011523 5 0 16.1 0.0 0.00 0.00 0.00 71 933.1
20260502011415 5 0 20.9 0.0 0.00 0.00 0.00 71 933.1
20260502011307 5 315 19.3 0.0 0.00 0.00 0.00 71 933.1
20260502011158 5 315 14.5 0.0 0.00 0.00 0.00 71 933.1
20260502011050 5 315 3.2 0.0 0.00 0.00 0.00 71 933.1
20260502010942 5 315 16.1 0.0 0.00 0.00 0.00 71 933.1
20260502010834 5 315 14.5 0.0 0.00 0.00 0.00 71 933.2
20260502010725 5 315 12.9 0.0 0.00 0.00 0.00 71 933.1
20260502010618 5 0 11.3 0.0 0.00 0.00 0.00 71 933.2
20260502010509 5 315 9.7 0.0 0.00 0.00 0.00 71 933.2
20260502010400 5 315 3.2 0.0 0.00 0.00 0.00 71 933.2
20260502010252 5 315 8.0 0.0 0.00 0.00 0.00 71 933.2
20260502010144 5 315 29.0 0.0 0.00 0.00 0.00 71 933.2
20260502010036 5 315 25.7 0.0 0.00 0.00 0.00 71 933.2
20260502005927 5 315 29.0 0.0 0.00 0.00 0.00 71 933.2
20260502005819 5 0 1.6 0.0 0.00 0.00 0.00 71 933.2
20260502005711 5 315 27.4 0.0 0.00 0.00 0.00 71 933.2
20260502005603 5 0 14.5 0.0 0.00 0.00 0.00 71 933.2
20260502005454 5 0 14.5 0.0 0.00 0.00 0.00 71 933.2
20260502005346 5 315 8.0 0.0 0.00 0.00 0.00 71 933.2
20260502005238 5 0 14.5 0.0 0.00 0.00 0.00 71 933.2
20260502005129 5 315 14.5 0.0 0.00 0.00 0.00 71 933.2
20260502005021 5 315 11.3 0.0 0.00 0.00 0.00 71 933.2
20260502004913 5 315 6.4 0.0 0.00 0.00 0.00 71 933.2
20260502004805 5 315 29.0 0.0 0.00 0.00 0.00 71 933.2
20260502004656 5 315 74.0 0.0 0.00 0.00 0.00 71 933.2
20260502004548 5 0 3.2 0.0 0.00 0.00 0.00 71 933.2
20260502004440 5 315 19.3 0.0 0.00 0.00 0.00 71 933.2
20260502004331 5 0 14.5 0.0 0.00 0.00 0.00 71 933.2
20260502004223 5 315 11.3 0.0 0.00 0.00 0.00 71 933.2
20260502004115 5 315 14.5 0.0 0.00 0.00 0.00 71 933.2
20260502004007 5 0 6.4 0.0 0.00 0.00 0.00 71 933.2
20260502003858 5 315 16.1 0.0 0.00 0.00 0.00 71 933.2
20260502003750 5 315 1.6 0.0 0.00 0.00 0.00 71 933.2
20260502003642 5 315 14.5 0.0 0.00 0.00 0.00 71 933.2
20260502003534 5 315 3.2 0.0 0.00 0.00 0.00 71 933.3
20260502003425 5 315 3.2 0.0 0.00 0.00 0.00 71 933.2
20260502003317 5 315 1.6 0.0 0.00 0.00 0.00 71 933.2
20260502003209 5 315 0.0 0.0 0.00 0.00 0.00 71 933.2
20260502003100 5 315 0.0 0.0 0.00 0.00 0.00 71 933.3
20260502002952 5 270 9.7 0.0 0.00 0.00 0.00 71 933.3
20260502002844 5 0 22.5 0.0 0.00 0.00 0.00 71 933.3
20260502002736 5 0 3.2 0.0 0.00 0.00 0.00 71 933.3
20260502002627 5 315 16.1 0.0 0.00 0.00 0.00 71 933.3
20260502002519 5 315 16.1 0.0 0.00 0.00 0.00 71 933.3
20260502002411 5 315 20.9 0.0 0.00 0.00 0.00 71 933.4
20260502002305 5 315 16.1 0.0 0.00 0.00 0.00 71 933.3
20260502002154 5 315 12.9 0.0 0.00 0.00 0.00 71 933.4
20260502002046 5 315 24.1 0.0 0.00 0.00 0.00 70 933.3
20260502001938 5 315 0.0 0.0 0.00 0.00 0.00 70 933.3
20260502001829 5 315 0.0 0.0 0.00 0.00 0.00 71 933.4
20260502001721 5 315 0.0 0.0 0.00 0.00 0.00 71 933.4
20260502001613 5 180 0.0 0.0 0.00 0.00 0.00 71 933.4
20260502001505 5 180 0.0 0.0 0.00 0.00 0.00 71 933.4
20260502001356 5 0 0.0 0.0 0.00 0.00 0.00 71 933.3
20260502001248 5 0 0.0 0.0 0.00 0.00 0.00 71 933.3
20260502001140 5 315 3.2 0.0 0.00 0.00 0.00 71 933.3
20260502001031 5 315 4.8 0.0 0.00 0.00 0.00 71 933.3
20260502000923 5 315 37.0 0.0 0.00 0.00 0.00 71 933.3
20260502000815 5 315 38.6 0.0 0.00 0.00 0.00 71 933.3
20260502000707 5 315 6.4 0.0 0.00 0.00 0.00 71 933.3
20260502000558 5 315 25.7 0.0 0.00 0.00 0.00 71 933.4
20260502000450 5 315 3.2 0.0 0.00 0.00 0.00 71 933.4
20260502000342 5 315 12.9 0.0 0.00 0.00 0.00 71 933.4
20260502000234 5 315 20.9 0.0 0.00 0.00 0.00 71 933.4
20260502000125 5 315 12.9 0.0 0.00 0.00 0.00 71 933.4
20260502000017 5 315 16.1 0.0 0.00 0.00 0.00 70 933.4
20260501235909 5 315 3.2 0.0 0.00 0.00 0.00 70 933.4
20260501235800 5 315 0.0 0.0 0.00 0.00 0.00 70 933.4
20260501235652 5 315 0.0 0.0 0.00 0.00 0.00 70 933.4
20260501235544 5 315 0.0 0.0 0.00 0.00 0.00 70 933.4
20260501235436 5 315 0.0 0.0 0.00 0.00 0.00 70 933.5
20260501235327 5 315 0.0 0.0 0.00 0.00 0.00 70 933.4
20260501235219 5 0 0.0 0.0 0.00 0.00 0.00 70 933.4
20260501235111 5 0 0.0 0.0 0.00 0.00 0.00 70 933.5
20260501235002 5 0 0.0 0.0 0.00 0.00 0.00 70 933.5
20260501234854 5 0 0.0 0.0 0.00 0.00 0.00 70 933.5
20260501234746 5 180 1.6 0.0 0.00 0.00 0.00 70 933.5
20260501234638 5 180 0.0 0.0 0.00 0.00 0.00 70 933.5
20260501234529 5 315 0.0 0.0 0.00 0.00 0.00 70 933.4
20260501234421 5 315 0.0 0.0 0.00 0.00 0.00 70 933.5
20260501234313 5 315 0.0 0.0 0.00 0.00 0.00 70 933.5
20260501234205 5 0 0.0 0.0 0.00 0.00 0.00 70 933.5
20260501234056 5 0 4.8 0.0 0.00 0.00 0.00 70 933.5
20260501233948 5 0 0.0 0.0 0.00 0.00 0.00 70 933.5
20260501233840 5 315 0.0 0.0 0.00 0.00 0.00 70 933.5
20260501233731 5 315 0.0 0.0 0.00 0.00 0.00 70 933.5
20260501233623 5 225 11.3 0.0 0.00 0.00 0.00 70 933.5
20260501233515 5 180 1.6 0.0 0.00 0.00 0.00 70 933.5
20260501233407 5 0 0.0 0.0 0.00 0.00 0.00 70 933.5
20260501233258 5 315 0.0 0.0 0.00 0.00 0.00 70 933.4
20260501233150 5 315 0.0 0.0 0.00 0.00 0.00 70 933.5
20260501233042 5 270 0.0 0.0 0.00 0.00 0.00 70 933.4
20260501232933 5 180 0.0 0.0 0.00 0.00 0.00 70 933.4
20260501232825 5 180 0.0 0.0 0.00 0.00 0.00 70 933.5
20260501232717 5 315 0.0 0.0 0.00 0.00 0.00 70 933.4
20260501232609 5 315 1.6 0.0 0.00 0.00 0.00 70 933.4
20260501232500 5 270 11.3 0.0 0.00 0.00 0.00 70 933.5
20260501232352 5 315 1.6 0.0 0.00 0.00 0.00 70 933.4
20260501232136 5 315 1.6 0.0 0.00 0.00 0.00 70 933.5
20260501231919 5 270 11.3 0.0 0.00 0.00 0.00 70 933.5
20260501231811 5 270 0.0 0.0 0.00 0.00 0.00 70 933.5
20260501231702 5 270 0.0 0.0 0.00 0.00 0.00 70 933.5
20260501231554 5 0 0.0 0.0 0.00 0.00 0.00 70 933.4
20260501231446 5 0 0.0 0.0 0.00 0.00 0.00 70 933.5
20260501231338 5 0 0.0 0.0 0.00 0.00 0.00 70 933.5
20260501231229 5 0 0.0 0.0 0.00 0.00 0.00 70 933.4
20260501231121 5 315 0.0 0.0 0.00 0.00 0.00 70 933.5
20260501231013 5 315 0.0 0.0 0.00 0.00 0.00 70 933.5
20260501230904 6 315 0.0 0.0 0.00 0.00 0.00 70 933.5
20260501230756 6 315 0.0 0.0 0.00 0.00 0.00 70 933.5
20260501230648 6 315 0.0 0.0 0.00 0.00 0.00 70 933.5
20260501230540 6 180 0.0 0.0 0.00 0.00 0.00 70 933.5
20260501230431 6 135 0.0 0.0 0.00 0.00 0.00 70 933.4
20260501230323 6 135 0.0 0.0 0.00 0.00 0.00 70 933.4
20260501230215 6 315 1.6 0.0 0.00 0.00 0.00 70 933.5
20260501225958 6 270 1.6 0.0 0.00 0.00 0.00 70 933.5
20260501225850 6 315 3.2 0.0 0.00 0.00 0.00 70 933.5
20260501225742 6 315 6.4 0.0 0.00 0.00 0.00 70 933.6
20260501225633 6 315 4.8 0.0 0.00 0.00 0.00 70 933.6
20260501225525 6 315 6.4 0.0 0.00 0.00 0.00 70 933.6
20260501225417 6 315 8.0 0.0 0.00 0.00 0.00 70 933.6
20260501225309 6 315 19.3 0.0 0.00 0.00 0.00 70 933.6
20260501225200 6 0 12.9 0.0 0.00 0.00 0.00 70 933.6
20260501225052 6 315 11.3 0.0 0.00 0.00 0.00 70 933.6
20260501224944 6 315 25.7 0.0 0.00 0.00 0.00 70 933.6
20260501224836 6 0 22.5 0.0 0.00 0.00 0.00 71 933.6
20260501224727 6 315 37.0 0.0 0.00 0.00 0.00 71 933.6
20260501224619 6 0 12.9 0.0 0.00 0.00 0.00 71 933.6
20260501224511 6 0 6.4 0.0 0.00 0.00 0.00 71 933.5
20260501224402 6 315 4.8 0.0 0.00 0.00 0.00 71 933.6
20260501224254 6 315 29.0 0.0 0.00 0.00 0.00 71 933.5
20260501224146 6 315 25.7 0.0 0.00 0.00 0.00 71 933.6
20260501224038 6 315 17.7 0.0 0.00 0.00 0.00 71 933.6
20260501223929 6 315 16.1 0.0 0.00 0.00 0.00 71 933.6
20260501223821 6 315 4.8 0.0 0.00 0.00 0.00 71 933.6
20260501223713 6 315 22.5 0.0 0.00 0.00 0.00 71 933.6
20260501223604 6 315 25.7 0.0 0.00 0.00 0.00 71 933.7
20260501223456 6 315 14.5 0.0 0.00 0.00 0.00 71 933.6
20260501223348 6 315 25.7 0.0 0.00 0.00 0.00 71 933.6
20260501223240 6 315 19.3 0.0 0.00 0.00 0.00 71 933.6
20260501223131 6 315 48.3 0.0 0.00 0.00 0.00 71 933.6
20260501223023 6 315 16.1 0.0 0.00 0.00 0.00 71 933.7
20260501222915 6 315 16.1 0.0 0.00 0.00 0.00 71 933.7
20260501222807 6 315 12.9 0.0 0.00 0.00 0.00 71 933.7
20260501222658 6 315 22.5 0.0 0.00 0.00 0.00 71 933.7
20260501222550 6 315 3.2 0.0 0.00 0.00 0.00 71 933.7
20260501222442 6 315 20.9 0.0 0.00 0.00 0.00 71 933.7
20260501222333 6 315 16.1 0.0 0.00 0.00 0.00 71 933.7
20260501222225 6 315 6.4 0.0 0.00 0.00 0.00 70 933.8
20260501222117 6 315 24.1 0.0 0.00 0.00 0.00 70 933.7
20260501222009 6 315 9.7 0.0 0.00 0.00 0.00 70 933.7
20260501221900 6 315 14.5 0.0 0.00 0.00 0.00 70 933.7
20260501221752 6 315 11.3 0.0 0.00 0.00 0.00 70 933.7
20260501221644 6 315 3.2 0.0 0.00 0.00 0.00 70 933.7
20260501221536 6 315 27.4 0.0 0.00 0.00 0.00 70 933.7
20260501221427 6 315 3.2 0.0 0.00 0.00 0.00 70 933.7
20260501221319 6 315 14.5 0.0 0.00 0.00 0.00 70 933.7
20260501221211 6 315 0.0 0.0 0.00 0.00 0.00 70 933.7
20260501221103 6 315 0.0 0.0 0.00 0.00 0.00 70 933.7
20260501220954 6 0 12.9 0.0 0.00 0.00 0.00 70 933.8
20260501220846 6 0 0.0 0.0 0.00 0.00 0.00 70 933.8
20260501220738 6 315 0.0 0.0 0.00 0.00 0.00 71 933.8
20260501220629 6 180 11.3 0.0 0.00 0.00 0.00 70 933.8
20260501220521 6 180 11.3 0.0 0.00 0.00 0.00 70 933.8
20260501220304 6 225 0.0 0.0 0.00 0.00 0.00 70 933.8
20260501220156 6 315 3.2 0.0 0.00 0.00 0.00 70 933.8
20260501220048 6 0 17.7 0.0 0.00 0.00 0.00 70 933.8
20260501215940 6 315 11.3 0.0 0.00 0.00 0.00 70 933.8
20260501215831 6 315 11.3 0.0 0.00 0.00 0.00 70 933.8
20260501215723 6 315 1.6 0.0 0.00 0.00 0.00 70 933.8
20260501215615 6 315 12.9 0.0 0.00 0.00 0.00 70 933.8
20260501215507 6 315 0.0 0.0 0.00 0.00 0.00 70 933.8
20260501215358 6 315 3.2 0.0 0.00 0.00 0.00 70 933.8
20260501215250 6 315 3.2 0.0 0.00 0.00 0.00 70 933.8
20260501215142 6 315 6.4 0.0 0.00 0.00 0.00 70 933.8
20260501215033 6 315 3.2 0.0 0.00 0.00 0.00 70 933.8
20260501214925 6 315 12.9 0.0 0.00 0.00 0.00 70 933.8
20260501214817 6 315 6.4 0.0 0.00 0.00 0.00 69 933.8
20260501214709 6 315 0.0 0.0 0.00 0.00 0.00 69 933.8
20260501214600 6 315 0.0 0.0 0.00 0.00 0.00 69 933.8
20260501214452 6 315 3.2 0.0 0.00 0.00 0.00 69 933.8
20260501214344 6 0 1.6 0.0 0.00 0.00 0.00 69 933.9
20260501214235 6 315 3.2 0.0 0.00 0.00 0.00 69 933.8
20260501214127 6 315 0.0 0.0 0.00 0.00 0.00 69 933.8
20260501214019 6 0 0.0 0.0 0.00 0.00 0.00 69 933.8
20260501213911 6 0 27.4 0.0 0.00 0.00 0.00 70 933.8
20260501213802 6 315 11.3 0.0 0.00 0.00 0.00 70 933.9
20260501213654 6 315 30.6 0.0 0.00 0.00 0.00 70 933.8
20260501213546 6 315 33.8 0.0 0.00 0.00 0.00 70 933.8
20260501213438 7 0 9.7 0.0 0.00 0.00 0.00 70 933.8
20260501213329 7 315 1.6 0.0 0.00 0.00 0.00 70 933.8
20260501213221 7 315 12.9 0.0 0.00 0.00 0.00 70 933.8
20260501213113 7 315 27.4 0.0 0.00 0.00 0.00 70 933.8
20260501213004 7 315 17.7 0.0 0.00 0.00 0.00 70 933.8
20260501212856 7 315 14.5 0.0 0.00 0.00 0.00 70 933.9
20260501212640 7 315 24.1 0.0 0.00 0.00 0.00 70 933.9
20260501212531 7 315 14.5 0.0 0.00 0.00 0.00 70 933.8
20260501212423 7 315 6.4 0.0 0.00 0.00 0.00 70 933.8
20260501212315 7 315 16.1 0.0 0.00 0.00 0.00 70 933.9
20260501212207 7 315 9.7 0.0 0.00 0.00 0.00 70 933.9
20260501212058 7 315 19.3 0.0 0.00 0.00 0.00 70 933.8
20260501211950 7 315 22.5 0.0 0.00 0.00 0.00 70 933.8
20260501211842 7 315 4.8 0.0 0.00 0.00 0.00 70 933.8
20260501211733 7 315 12.9 0.0 0.00 0.00 0.00 70 933.8
20260501211625 7 315 6.4 0.0 0.00 0.00 0.00 70 933.8
20260501211517 7 315 35.4 0.0 0.00 0.00 0.00 70 933.8
20260501211409 7 315 12.9 0.0 0.00 0.00 0.00 70 933.8
20260501211300 7 315 25.7 0.0 0.00 0.00 0.00 70 933.8
20260501211152 7 315 17.7 0.0 0.00 0.00 0.00 70 933.8
20260501211044 7 315 27.4 0.0 0.00 0.00 0.00 70 933.7
20260501210935 7 315 20.9 0.0 0.00 0.00 0.00 70 933.8
20260501210827 7 315 40.2 0.0 0.00 0.00 0.00 70 933.7
20260501210719 7 315 17.7 0.0 0.00 0.00 0.00 70 933.8
20260501210611 7 315 17.7 0.0 0.00 0.00 0.00 70 933.8
20260501210502 7 315 30.6 0.0 0.00 0.00 0.00 70 933.8
20260501210354 7 315 22.5 0.0 0.00 0.00 0.00 70 933.8
20260501210246 7 315 14.5 0.0 0.00 0.00 0.00 70 933.8
20260501210138 7 0 27.4 0.0 0.00 0.00 0.00 70 933.7
20260501210029 7 315 16.1 0.0 0.00 0.00 0.00 70 933.8
20260501205921 7 0 3.2 0.0 0.00 0.00 0.00 70 933.8
20260501205813 7 315 43.5 0.0 0.00 0.00 0.00 70 933.8
20260501205704 7 315 12.9 0.0 0.00 0.00 0.00 69 933.8
20260501205556 7 315 3.2 0.0 0.00 0.00 0.00 69 933.8
20260501205448 7 0 9.7 0.0 0.00 0.00 0.00 69 933.8
20260501205340 7 315 6.4 0.0 0.00 0.00 0.00 69 933.8
20260501205231 7 315 4.8 0.0 0.00 0.00 0.00 69 933.8
20260501205123 7 315 14.5 0.0 0.00 0.00 0.00 70 933.8
20260501205015 7 315 32.2 0.0 0.00 0.00 0.00 70 933.8
20260501204907 7 315 11.3 0.0 0.00 0.00 0.00 70 933.8
20260501204758 7 0 22.5 0.0 0.00 0.00 0.00 69 933.8
20260501204650 7 0 48.3 0.0 0.00 0.00 0.00 69 933.8
20260501204542 7 0 1.6 0.0 0.00 0.00 0.00 69 933.8
20260501204433 7 315 17.7 0.0 0.00 0.00 0.00 69 933.7
20260501204325 7 315 19.3 0.0 0.00 0.00 0.00 69 933.7
20260501204217 7 315 12.9 0.0 0.00 0.00 0.00 69 933.7
20260501204109 7 0 17.7 0.0 0.00 0.00 0.00 69 933.7
20260501204000 7 315 1.6 0.0 0.00 0.00 0.00 69 933.7
20260501203852 7 315 14.5 0.0 0.00 0.00 0.00 69 933.7
20260501203744 7 0 3.2 0.0 0.00 0.00 0.00 69 933.7
20260501203635 7 315 16.1 0.0 0.00 0.00 0.00 69 933.7
20260501203527 7 315 3.2 0.0 0.00 0.00 0.00 69 933.7
20260501203419 8 315 3.2 0.0 0.00 0.00 0.00 69 933.6
20260501203311 8 315 0.0 0.0 0.00 0.00 0.00 69 933.6
20260501203202 8 270 24.1 0.0 0.00 0.00 0.00 69 933.6
20260501203054 8 0 0.0 0.0 0.00 0.00 0.00 69 933.5
20260501202946 8 315 0.0 0.0 0.00 0.00 0.00 69 933.6
20260501202838 8 0 19.3 0.0 0.03 0.00 0.00 69 933.6
20260501202729 8 0 6.4 0.0 0.03 0.00 0.00 69 933.6
20260501202621 8 0 9.7 0.0 0.03 0.00 0.00 69 933.6
20260501202513 8 315 4.8 0.0 0.03 0.00 0.00 69 933.6
20260501202404 8 0 1.6 0.0 0.03 0.00 0.00 70 933.6
20260501202148 8 315 12.9 0.0 0.03 0.00 0.00 70 933.6
20260501202040 8 315 25.7 0.0 0.03 0.00 0.00 70 933.6
20260501201931 8 0 38.6 0.0 0.03 0.00 0.00 70 933.6
20260501201823 9 315 74.0 0.0 0.03 0.00 0.00 70 933.5
20260501201715 9 0 33.8 0.0 0.03 0.00 0.00 70 933.6
20260501201606 9 315 6.4 0.0 0.03 0.00 0.00 71 933.5
20260501201458 9 0 17.7 0.0 0.03 0.00 0.00 71 933.5
20260501201350 9 45 56.3 0.0 0.03 0.00 0.00 71 933.5
20260501201242 9 0 51.5 0.0 0.03 0.00 0.00 71 933.5
20260501201133 9 0 11.3 0.0 0.03 0.00 0.00 71 933.5
20260501201025 9 0 24.1 0.0 0.03 0.00 0.00 71 933.5
20260501200917 9 0 46.7 0.0 0.03 0.00 0.00 71 933.5
20260501200809 9 90 24.1 0.0 0.03 0.00 0.00 71 933.5
20260501200700 9 225 24.1 0.0 0.03 0.00 0.00 71 933.5
20260501200552 9 0 70.8 0.0 0.03 0.00 0.00 71 933.5
20260501200444 9 0 51.5 0.0 0.03 0.00 0.00 71 933.5
20260501200335 9 45 16.1 0.0 0.03 0.00 0.00 71 933.5
20260501200227 9 270 123.9 0.0 0.03 0.00 0.00 71 933.5
20260501200119 9 0 35.4 0.0 0.03 0.00 0.00 71 933.5
20260501200011 9 0 38.6 0.0 0.03 0.00 0.00 71 933.5
20260501195902 9 0 70.8 0.0 0.03 0.00 0.00 71 933.5
20260501195754 9 315 41.8 0.0 0.03 0.00 0.00 71 933.5
20260501195646 9 0 38.6 0.0 0.03 0.00 0.00 71 933.5
20260501195538 9 0 41.8 0.0 0.03 0.00 0.00 71 933.5
20260501195429 9 0 37.0 0.0 0.03 0.00 0.00 71 933.5
20260501195321 9 0 11.3 0.0 0.03 0.00 0.00 71 933.5
20260501195213 9 315 62.8 0.0 0.03 0.00 0.00 71 933.4
20260501195104 9 0 114.3 0.0 0.03 0.00 0.00 71 933.4
20260501194956 9 0 132.0 0.0 0.03 0.00 0.00 70 933.4
20260501194848 9 45 6.4 0.0 0.03 0.00 0.00 70 933.4
20260501194740 9 90 70.8 0.0 0.03 0.00 0.00 70 933.4
20260501194631 9 0 51.5 0.0 0.03 0.00 0.00 70 933.4
20260501194523 9 0 86.9 0.0 0.03 0.00 0.00 70 933.4
20260501194415 9 0 27.4 0.0 0.03 0.00 0.00 70 933.4
20260501194307 10 0 57.9 0.0 0.03 0.00 0.00 70 933.4
20260501194158 10 0 32.2 0.0 0.03 0.00 0.00 70 933.4
20260501194050 10 0 35.4 0.0 0.03 0.00 0.00 70 933.4
20260501193942 10 0 62.8 0.0 0.00 0.00 0.00 70 933.4
20260501193833 10 0 70.8 0.0 0.00 0.00 0.00 71 933.4
20260501193725 10 0 16.1 0.0 0.00 0.00 0.00 71 933.4
20260501193617 10 45 14.5 0.0 0.00 0.00 0.00 71 933.4
20260501193509 10 0 101.4 0.0 0.00 0.00 0.00 71 933.4
20260501193400 10 45 69.2 0.0 0.00 0.00 0.00 71 933.3
20260501193252 10 0 45.1 0.0 0.00 0.00 0.00 71 933.3
20260501193144 10 0 46.7 0.0 0.00 0.00 0.00 71 933.3
20260501193035 10 0 35.4 0.0 0.00 0.00 0.00 71 933.3
20260501192927 10 45 88.5 0.0 0.00 0.00 0.00 71 933.3
20260501192819 10 90 32.2 0.0 0.00 0.00 0.00 71 933.3
20260501192711 10 0 40.2 0.0 0.00 0.00 0.00 71 933.3
20260501192602 10 45 33.8 0.0 0.00 0.00 0.00 71 933.3
20260501192454 10 0 54.7 0.0 0.00 0.00 0.00 71 933.3
20260501192346 10 0 46.7 0.0 0.00 0.00 0.00 71 933.3
20260501192238 10 0 72.4 0.0 0.00 0.00 0.00 71 933.3
20260501192129 10 0 35.4 0.0 0.00 0.00 0.00 71 933.3
20260501192021 10 315 30.6 0.0 0.00 0.00 0.00 71 933.3
20260501191913 10 0 135.2 0.0 0.00 0.00 0.00 71 933.3
20260501191804 10 0 43.5 0.0 0.00 0.00 0.00 71 933.2
20260501191656 10 45 27.4 0.0 0.00 0.00 0.00 71 933.3
20260501191548 10 0 56.3 0.0 0.00 0.00 0.00 71 933.3
20260501191440 10 0 54.7 0.0 0.00 0.00 0.00 71 933.2
20260501191331 10 0 77.2 0.0 0.00 0.00 0.00 71 933.3
20260501191223 10 0 53.1 0.0 0.00 0.00 0.00 71 933.3
20260501191115 10 315 64.4 0.0 0.00 0.00 0.00 71 933.2
20260501191007 10 0 11.3 0.0 0.00 0.00 0.00 70 933.3
20260501190858 10 315 24.1 0.0 0.00 0.00 0.00 71 933.3
20260501190750 10 0 41.8 0.0 0.00 0.00 0.00 71 933.3
20260501190642 10 0 54.7 0.0 0.00 0.00 0.00 71 933.3
20260501190533 10 0 77.2 0.0 0.00 0.00 0.00 71 933.3
20260501190425 10 0 25.7 0.0 0.00 0.00 0.00 71 933.3
20260501190317 10 315 24.1 0.0 0.00 0.00 0.00 71 933.3
20260501190209 10 90 51.5 0.0 0.00 0.00 0.00 71 933.3
20260501190100 10 0 16.1 0.0 0.00 0.00 0.00 71 933.3
20260501185952 10 0 29.0 0.0 0.00 0.00 0.00 71 933.3
20260501185844 10 315 1.6 0.0 0.00 0.00 0.00 71 933.4
20260501185735 10 0 61.2 0.0 0.00 0.00 0.00 71 933.4
20260501185627 10 0 27.4 0.0 0.00 0.00 0.00 71 933.3
20260501185519 10 135 72.4 0.0 0.00 0.00 0.00 71 933.3
20260501185411 10 0 82.1 0.0 0.00 0.00 0.00 71 933.3
20260501185305 10 0 27.4 0.0 0.00 0.00 0.00 71 933.3
20260501185154 10 315 114.3 0.0 0.00 0.00 0.00 71 933.2
20260501185046 10 315 74.0 0.0 0.00 0.00 0.00 71 933.2
20260501184938 10 0 85.3 0.0 0.00 0.00 0.00 71 933.2
20260501184830 10 45 106.2 0.0 0.00 0.00 0.00 71 933.2
20260501184721 10 315 51.5 0.0 0.00 0.00 0.00 71 933.2
20260501184613 10 315 12.9 0.0 0.00 0.00 0.00 71 933.1
20260501184505 10 0 40.2 0.0 0.00 0.00 0.00 71 933.3
20260501184356 10 270 12.9 0.0 0.00 0.00 0.00 70 933.2
20260501184248 10 0 16.1 0.0 0.00 0.00 0.00 70 933.2
20260501184140 10 315 72.4 0.0 0.00 0.00 0.00 70 933.2
20260501184031 10 0 91.7 0.0 0.00 0.00 0.00 70 933.1
20260501183923 10 0 33.8 0.0 0.00 0.00 0.00 70 933.1
20260501183815 10 0 17.7 0.0 0.00 0.00 0.00 70 933.2
20260501183706 10 0 27.4 0.0 0.00 0.00 0.00 70 933.1
20260501183558 10 45 41.8 0.0 0.00 0.00 0.00 70 933.1
20260501183450 10 0 22.5 0.0 0.00 0.00 0.00 70 933.2
20260501183342 10 315 14.5 0.0 0.00 0.00 0.00 70 933.1
20260501183233 10 270 29.0 0.0 0.00 0.00 0.00 70 933.1
20260501183125 10 45 11.3 0.0 0.00 0.00 0.00 70 933.1
20260501183017 10 0 11.3 0.0 0.00 0.00 0.00 70 933.1
20260501182908 10 0 53.1 0.0 0.00 0.00 0.00 70 933.1
20260501182800 10 315 19.3 0.0 0.00 0.00 0.00 70 933.0
20260501182652 10 0 33.8 0.0 0.00 0.00 0.00 70 933.0
20260501182544 11 0 83.7 0.0 0.00 0.00 0.00 70 933.0
20260501182435 11 45 32.2 0.0 0.00 0.00 0.00 70 933.0
20260501182327 11 0 45.1 0.0 0.00 0.00 0.00 70 933.1
20260501182218 11 0 45.1 0.0 0.00 0.00 0.00 70 933.0
20260501182110 11 45 74.0 0.0 0.00 0.00 0.00 70 933.0